Total_Precipitation_Accumulation
0.48 0.41 0.30 0.30 0.33 0.34 0.40 0.44 0.43 0.44 0.52 0.46 0.19 0.05 0.02 0.03 0.02 0.01 0.01 0.01 0.01 0.01 0.01 0.01 0.01 0.01 0.02 0.01 0.00 0.00 0.00 0.00 0.00 0.00 0.00 0.00 0.00 0.00
0.46 0.40 0.34 0.35 0.39 0.41 0.46 0.48 0.53 0.58 0.58 0.55 0.38 0.15 0.09 0.04 0.02 0.02 0.02 0.01 0.00 0.00 0.00 0.00 0.00 0.00 0.00 0.00 0.00 0.00 0.00 0.00 0.00 0.00 0.00 0.00 0.00 0.00
0.31 0.31 0.33 0.37 0.41 0.44 0.46 0.47 0.59 0.71 0.72 0.74 0.62 0.42 0.26 0.13 0.05 0.04 0.02 0.01 0.00 0.00 0.00 0.00 0.00 0.00 0.00 0.00 0.00 0.00 0.00 0.00 0.00 0.00 0.00 0.00 0.00 0.00
0.27 0.36 0.41 0.49 0.49 0.44 0.46 0.50 0.64 0.77 0.86 1.00 1.04 0.79 0.52 0.25 0.16 0.09 0.03 0.01 0.01 0.01 0.00 0.00 0.00 0.00 0.00 0.00 0.00 0.00 0.00 0.00 0.00 0.00 0.00 0.00 0.00 0.00
0.24 0.35 0.40 0.41 0.43 0.44 0.49 0.54 0.59 0.68 0.76 0.88 1.01 0.84 0.65 0.38 0.32 0.23 0.12 0.11 0.05 0.04 0.01 0.00 0.00 0.00 0.00 0.00 0.00 0.00 0.00 0.00 0.00 0.00 0.00 0.00 0.00 0.00
0.15 0.22 0.27 0.28 0.33 0.36 0.39 0.47 0.53 0.53 0.55 0.62 0.74 0.78 0.81 0.70 0.60 0.50 0.39 0.29 0.19 0.10 0.09 0.03 0.02 0.01 0.01 0.01 0.00 0.01 0.00 0.00 0.00 0.00 0.00 0.00 0.00 0.00
0.09 0.10 0.10 0.12 0.15 0.19 0.24 0.33 0.40 0.47 0.51 0.55 0.65 0.73 0.78 0.78 0.69 0.64 0.52 0.45 0.35 0.28 0.30 0.19 0.15 0.13 0.08 0.04 0.03 0.02 0.01 0.01 0.01 0.00 0.00 0.00 0.00 0.00
0.05 0.05 0.04 0.04 0.05 0.08 0.10 0.13 0.18 0.28 0.42 0.55 0.64 0.73 0.72 0.65 0.72 0.67 0.61 0.59 0.53 0.44 0.48 0.45 0.42 0.38 0.28 0.17 0.11 0.07 0.04 0.03 0.02 0.01 0.01 0.00 0.00 0.00
0.01 0.02 0.01 0.00 0.01 0.03 0.06 0.11 0.11 0.11 0.15 0.35 0.48 0.51 0.48 0.40 0.53 0.67 0.61 0.58 0.58 0.43 0.46 0.54 0.55 0.53 0.41 0.33 0.23 0.12 0.08 0.07 0.06 0.04 0.03 0.02 0.02 0.01
0.00 0.00 0.00 0.00 0.00 0.00 0.03 0.07 0.05 0.03 0.05 0.13 0.16 0.16 0.18 0.22 0.29 0.43 0.52 0.46 0.44 0.41 0.42 0.54 0.56 0.60 0.51 0.39 0.27 0.15 0.10 0.09 0.09 0.08 0.07 0.06 0.04 0.03
0.00 0.00 0.00 0.00 0.00 0.00 0.03 0.06 0.02 0.01 0.01 0.02 0.03 0.06 0.08 0.10 0.14 0.21 0.30 0.41 0.54 0.48 0.37 0.51 0.54 0.60 0.69 0.54 0.35 0.20 0.12 0.11 0.10 0.10 0.09 0.08 0.05 0.04
0.00 0.00 0.00 0.00 0.00 0.00 0.01 0.03 0.03 0.01 0.01 0.00 0.00 0.00 0.01 0.03 0.05 0.07 0.12 0.23 0.38 0.40 0.27 0.30 0.42 0.57 0.69 0.57 0.36 0.22 0.15 0.14 0.13 0.10 0.09 0.07 0.06 0.05
0.00 0.00 0.00 0.00 0.00 0.00 0.00 0.00 0.00 0.00 0.00 0.00 0.01 0.01 0.01 0.00 0.00 0.01 0.02 0.07 0.14 0.16 0.16 0.19 0.22 0.30 0.43 0.44 0.34 0.20 0.15 0.14 0.13 0.11 0.07 0.05 0.06 0.09
0.01 0.00 0.00 0.00 0.00 0.00 0.00 0.00 0.00 0.00 0.00 0.00 0.00 0.00 0.00 0.00 0.00 0.00 0.00 0.01 0.03 0.06 0.07 0.10 0.12 0.14 0.17 0.21 0.18 0.15 0.13 0.14 0.12 0.10 0.08 0.07 0.08 0.10
0.00 0.00 0.00 0.00 0.00 0.00 0.00 0.00 0.00 0.00 0.00 0.00 0.00 0.00 0.00 0.00 0.00 0.00 0.00 0.00 0.00 0.01 0.01 0.02 0.03 0.04 0.05 0.07 0.06 0.04 0.03 0.04 0.06 0.04 0.06 0.07 0.07 0.08
0.01 0.01 0.00 0.00 0.00 0.00 0.00 0.00 0.00 0.00 0.00 0.00 0.00 0.00 0.00 0.00 0.00 0.00 0.00 0.01 0.00 0.00 0.00 0.00 0.01 0.01 0.01 0.01 0.01 0.01 0.00 0.00 0.02 0.07 0.10 0.09 0.05 0.06
0.02 0.02 0.01 0.01 0.01 0.00 0.00 0.00 0.00 0.00 0.00 0.00 0.00 0.00 0.00 0.00 0.00 0.00 0.00 0.00 0.00 0.00 0.00 0.00 0.00 0.00 0.00 0.00 0.00 0.00 0.00 0.00 0.01 0.04 0.08 0.10 0.06 0.06
0.05 0.05 0.05 0.03 0.02 0.01 0.01 0.00 0.00 0.00 0.00 0.00 0.00 0.00 0.00 0.00 0.00 0.00 0.00 0.00 0.00 0.00 0.00 0.00 0.00 0.00 0.00 0.00 0.00 0.00 0.00 0.00 0.00 0.00 0.01 0.03 0.05 0.10
0.06 0.09 0.09 0.07 0.04 0.02 0.01 0.01 0.01 0.01 0.01 0.01 0.01 0.01 0.01 0.01 0.01 0.01 0.01 0.01 0.01 0.00 0.00 0.00 0.00 0.00 0.00 0.01 0.00 0.00 0.00 0.00 0.00 0.00 0.00 0.00 0.01 0.02
0.04 0.08 0.11 0.10 0.07 0.05 0.03 0.02 0.01 0.01 0.01 0.01 0.01 0.01 0.01 0.01 0.01 0.01 0.01 0.01 0.01 0.00 0.00 0.00 0.00 0.00 0.00 0.00 0.00 0.00 0.00 0.00 0.00 0.00 0.00 0.00 0.00 0.00
0.02 0.03 0.05 0.06 0.06 0.06 0.05 0.04 0.03 0.03 0.02 0.02 0.02 0.02 0.02 0.02 0.02 0.02 0.02 0.02 0.02 0.01 0.01 0.01 0.01 0.00 0.00 0.00 0.00 0.00 0.00 0.00 0.00 0.00 0.00 0.00 0.00 0.00
0.00 0.01 0.01 0.02 0.03 0.04 0.04 0.04 0.03 0.03 0.04 0.04 0.03 0.03 0.03 0.03 0.03 0.02 0.01 0.02 0.02 0.02 0.02 0.02 0.01 0.00 0.00 0.00 0.00 0.00 0.00 0.00 0.00 0.00 0.00 0.00 0.00 0.00
0.00 0.00 0.01 0.01 0.01 0.02 0.02 0.02 0.03 0.03 0.03 0.03 0.03 0.03 0.03 0.02 0.02 0.02 0.01 0.02 0.03 0.03 0.03 0.02 0.02 0.01 0.01 0.01 0.00 0.00 0.00 0.00 0.00 0.00 0.00 0.00 0.00 0.00